This is the latest recevied weather packets stored in our database for station/object 9D9-WX. If no packets are shown the sender has not sent any weather packets the latest 10 day(s).
| Time | Temp. | Humidity | Pressure | Rain* | Wind** | Luminosity | Snow |
|---|---|---|---|---|---|---|---|
| 1778011230 | 12.78° C | 33% | 980 hPa | 0 mm | - | - | - |
| 1778010309 | 12.78° C | 35% | 980 hPa | 0 mm | - | - | - |
| 1778009423 | 12.78° C | 35% | 980 hPa | 0 mm | - | - | - |
| 1778008512 | 12.78° C | 35% | 980 hPa | 0 mm | - | - | - |
| 1778007627 | 12.78° C | 35% | 980 hPa | 0 mm | - | - | - |
| 1778006712 | 12.78° C | 33% | 980.6 hPa | 0 mm | - | - | - |
| 1778005829 | 13.33° C | 36% | 979.9 hPa | 0 mm | - | - | - |
| 1778004912 | 13.33° C | 36% | 979.9 hPa | 0 mm | - | - | - |
| 1778004031 | 13.33° C | 36% | 979.9 hPa | 0 mm | - | - | - |
| 1778003112 | 13.33° C | 36% | 979.2 hPa | 0 mm | - | - | - |
| 1778002223 | 12.78° C | 36% | 978.4 hPa | 0 mm | - | - | - |
| 1778001312 | 12.78° C | 36% | 978.4 hPa | 0 mm | - | - | - |
| 1778000429 | 12.22° C | 36% | 978.4 hPa | 0 mm | - | - | - |
| 1777999512 | 12.22° C | 43% | 979.1 hPa | 0 mm | - | - | - |
| 1777998629 | 11.11° C | 45% | 977.4 hPa | 0 mm | - | - | - |
| 1777997712 | 10.56° C | 45% | 977.4 hPa | 0 mm | - | - | - |
| 1777996833 | 11.11° C | 45% | 977.4 hPa | 0 mm | - | - | - |
| 1777995909 | 10.56° C | 52% | 979.3 hPa | 0 mm | - | - | - |
| 1777995030 | 10° C | 49% | 978.2 hPa | 0 mm | - | - | - |
| 1777994112 | 10.56° C | 49% | 978.2 hPa | 0 mm | - | - | - |
| 1777993234 | 10.56° C | 49% | 978.2 hPa | 0 mm | - | - | - |
| 1777992312 | 10.56° C | 72% | 978.1 hPa | 0.25 mm | - | - | - |
| 1777991425 | 11.11° C | 51% | 978.2 hPa | 0.25 mm | - | - | - |
| 1777990511 | 10.56° C | 51% | 978.1 hPa | 0.25 mm | - | - | - |
| 1777989635 | 10° C | 51% | 978.1 hPa | 0.25 mm | - | - | - |
* Rain latest hour (hover to see other rain measurements)
** Current wind speed in m/s (hover to see current wind gust speed)